Weather History for Haines, AK

Change the Weather History Date:

Wednesday, May 15, 2013

  Actual Average Record
Temperature  
Mean Temperature 48 °F -  
Max Temperature 54 °F 55 °F 73 °F (1984)
Min Temperature 44 °F 40 °F 33 °F (1985)
Degree Days  
Heating Degree Days 16    
Moisture  
Dew Point 39 °F    
Average Humidity 73    
Maximum Humidity 93    
Minimum Humidity 48    
Precipitation  
Precipitation 0.03 in - - ()
Sea Level Pressure  
Sea Level Pressure 29.87 in    
Wind  
Wind Speed 12 mph (ESE)    
Max Wind Speed 20 mph    
Max Gust Speed 41 mph    
Visibility 10 miles    
Events Rain    
Averages and records for this station are not official NWS values.
T = Trace of Precipitation, MM = Missing Value Source: NWS Daily Summary

Daily Weather History Graph

Daily Weather History Graph

Search for Another Location

Airport:

Trip Planner

Search our weather history database for the weather conditions in past years. The results will help you decide how hot, cold, wet, or windy it might be!

Date:

Astronomy

May. 15, 2013 Rise Set
Actual Time 4:28 AM AKDT 9:29 PM AKDT
Civil Twilight 3:28 AM AKDT 10:30 PM AKDT
Nautical Twilight 1:30 AM AKDT 12:25 AM AKDT
Astronomical Twilight Sun does not rise Sun does not rise
Moon 9:28 AM AKDT (5/15) 1:05 AM AKDT (5/15)
Length of Visible Light 19h 02m
Length of Day
17h 01m
Waxing Crescent, 28% of the Moon is Illuminated
May 15
Waxing Crescent
May 17
First Quarter
May 24
Full
May 31
Last Quarter
Jun 8
New

Hourly Weather History & Observations

Time (AKDT) Temp. Windchill Dew Point Humidity Pressure Visibility Wind Dir Wind Speed Gust Speed Precip Events Conditions
12:54 AM 45.0 °F 38.9 °F 42.1 °F 90% 29.80 in 10.0 mi ESE 12.7 mph 19.6 mph 0.01 in Rain Light Rain
1:28 AM 44.6 °F 39.2 °F 42.8 °F 93% 29.79 in 10.0 mi East 10.4 mph 41.4 mph 0.00 in   Overcast
1:43 AM 44.6 °F 40.2 °F 42.8 °F 93% 29.79 in 10.0 mi East 8.1 mph 19.6 mph 0.00 in   Overcast
1:54 AM 44.1 °F 37.1 °F 42.1 °F 93% 29.80 in 10.0 mi East 15.0 mph 25.3 mph 0.00 in   Overcast
2:54 AM 44.1 °F 38.1 °F 41.0 °F 89% 29.80 in 10.0 mi East 11.5 mph 17.3 mph 0.00 in Rain Light Rain
3:54 AM 44.1 °F 36.8 °F 41.0 °F 89% 29.81 in 10.0 mi ESE 16.1 mph 24.2 mph 0.01 in Rain Light Rain
4:54 AM 44.1 °F 38.1 °F 41.0 °F 89% 29.81 in 10.0 mi East 11.5 mph 18.4 mph 0.01 in   Overcast
5:54 AM 44.1 °F 39.0 °F 41.0 °F 89% 29.82 in 10.0 mi East 9.2 mph 16.1 mph 0.00 in Rain Light Rain
6:54 AM 45.0 °F 40.1 °F 42.1 °F 90% 29.83 in 10.0 mi ESE 9.2 mph - 0.00 in   Overcast
7:24 AM 46.4 °F 41.5 °F 42.8 °F 87% 29.82 in 10.0 mi East 10.4 mph 23.0 mph N/A   Overcast
7:54 AM 46.9 °F - 42.1 °F 83% 29.84 in 10.0 mi ESE 16.1 mph 25.3 mph N/A   Overcast
8:54 AM 48.9 °F - 42.1 °F 77% 29.85 in 10.0 mi East 9.2 mph 23.0 mph N/A   Partly Cloudy
9:31 AM 48.2 °F - 42.8 °F 82% 29.85 in 10.0 mi East 16.1 mph 28.8 mph N/A   Overcast
9:54 AM 48.9 °F - 42.1 °F 77% 29.86 in 10.0 mi ESE 16.1 mph 26.5 mph N/A   Mostly Cloudy
10:54 AM 51.1 °F - 42.1 °F 71% 29.87 in 10.0 mi ESE 15.0 mph 31.1 mph N/A   Clear
11:54 AM 51.1 °F - 42.1 °F 71% 29.88 in 10.0 mi SE 19.6 mph 29.9 mph N/A   Partly Cloudy
12:54 PM 52.0 °F - 42.1 °F 69% 29.90 in 10.0 mi ESE 16.1 mph 25.3 mph N/A   Clear
1:54 PM 53.1 °F - 43.0 °F 69% 29.91 in 10.0 mi SE 16.1 mph 25.3 mph N/A   Clear
2:54 PM 53.1 °F - 41.0 °F 64% 29.92 in 10.0 mi ESE 17.3 mph 27.6 mph N/A   Clear
3:54 PM 53.1 °F - 39.0 °F 59% 29.93 in 10.0 mi ESE 15.0 mph 21.9 mph N/A   Clear
4:54 PM 52.0 °F - 37.9 °F 59% 29.93 in 10.0 mi SE 12.7 mph 19.6 mph N/A   Clear
5:54 PM 52.0 °F - 35.1 °F 53% 29.94 in 10.0 mi ESE 9.2 mph 18.4 mph N/A   Clear
6:54 PM 51.1 °F - 32.0 °F 48% 29.94 in 10.0 mi ESE 9.2 mph 16.1 mph N/A   Clear
7:54 PM 48.9 °F - 30.9 °F 50% 29.94 in 10.0 mi East 10.4 mph - N/A   Clear
8:54 PM 48.9 °F - 30.0 °F 48% 29.95 in 10.0 mi East 5.8 mph - N/A   Clear
9:54 PM 48.0 °F - 30.0 °F 50% 29.95 in 10.0 mi ENE 10.4 mph - N/A   Clear
10:54 PM 48.0 °F - 30.0 °F 50% 29.96 in 10.0 mi East 4.6 mph - N/A   Clear
11:54 PM 46.9 °F - 30.9 °F 54% 29.97 in 10.0 mi East 5.8 mph - N/A   Clear